Location: Unspecified
(54.0667°N, 18.4333°E)
Time: 06:30:17
(UTC+02:00)

ISS - Pass Details

Date: 21 December 2012
Orbit: 418 x 420 km, 51.6° (Epoch: 12 August)

Event Time Altitude Azimuth Distance (km) Brightness Sun altitude
Rises 16:29:16 0° 274° (W) 2,372 1.1 -8.5°
Reaches altitude 10° 16:31:23 10° 268° (W) 1,514 0.2 -8.8°
Maximum altitude 16:34:38 44° 195° (SSW) 612 -2.6 -9.2°
Drops below altitude 10° 16:37:58 10° 122° (ESE) 1,563 -1.2 -9.6°
Enters shadow 16:39:45 - 117° (ESE) 2,283 -0.4 -9.9°
